Time,TemperatureF,DewpointF,PressureIn,WindDirection,WindDirectionDegrees,WindSpeedMPH,WindSpeedGustMPH,Humidity,HourlyPrecipIn,Conditions,Clouds,dailyrainin,SoftwareType,DateUTC
2013-08-24 00:00:00,71.1,67.4,29.91,SW,216,5.0,6.0,88,0.00,,---,0.00,VWS V14.01,2013-08-24 05:00:00,
2013-08-24 00:05:00,70.9,67.2,29.91,SW,219,5.0,7.0,88,0.00,,---,0.00,VWS V14.01,2013-08-24 05:05:00,
2013-08-24 00:10:00,71.1,67.4,29.91,SSW,209,6.0,6.0,88,0.00,,---,0.00,VWS V14.01,2013-08-24 05:10:00,
2013-08-24 00:15:00,71.1,67.4,29.91,SSW,192,3.0,8.0,88,0.00,,---,0.00,VWS V14.01,2013-08-24 05:15:00,
2013-08-24 00:20:00,71.1,67.4,29.91,SSW,199,5.0,5.0,88,0.00,,---,0.00,VWS V14.01,2013-08-24 05:20:00,
2013-08-24 00:25:00,71.1,67.4,29.91,SW,215,3.0,10.0,88,0.00,,---,0.00,VWS V14.01,2013-08-24 05:25:00,
2013-08-24 00:30:00,70.9,67.2,29.91,SSW,193,2.0,10.0,88,0.00,,---,0.00,VWS V14.01,2013-08-24 05:30:00,
2013-08-24 00:35:00,70.8,67.4,29.91,South,185,6.0,11.0,89,0.00,,---,0.00,VWS V14.01,2013-08-24 05:35:00,
2013-08-24 00:40:00,70.8,67.4,29.91,SW,216,2.0,2.0,89,0.00,,---,0.00,VWS V14.01,2013-08-24 05:40:00,
2013-08-24 00:45:00,70.6,67.2,29.91,SSW,200,5.0,7.0,89,0.00,,---,0.00,VWS V14.01,2013-08-24 05:45:00,
2013-08-24 00:50:00,70.6,67.5,29.91,SSW,200,6.0,8.0,90,0.00,,---,0.00,VWS V14.01,2013-08-24 05:50:00,
2013-08-24 00:55:00,70.6,67.5,29.91,WSW,237,4.0,11.0,90,0.00,,---,0.00,VWS V14.01,2013-08-24 05:55:00,
2013-08-24 01:00:00,70.6,67.5,29.91,SSW,200,3.0,11.0,90,0.00,,---,0.00,VWS V14.01,2013-08-24 06:00:00,
2013-08-24 01:05:00,70.4,67.3,29.91,SSW,205,4.0,10.0,90,0.00,,---,0.00,VWS V14.01,2013-08-24 06:05:00,
2013-08-24 01:10:00,70.4,67.3,29.91,SSW,203,6.0,10.0,90,0.00,,---,0.00,VWS V14.01,2013-08-24 06:10:00,
2013-08-24 01:15:00,70.4,67.3,29.91,SSW,202,6.0,10.0,90,0.00,,---,0.00,VWS V14.01,2013-08-24 06:15:00,
2013-08-24 01:20:00,70.4,67.3,29.91,SSW,200,5.0,11.0,90,0.00,,---,0.00,VWS V14.01,2013-08-24 06:20:00,
2013-08-24 01:25:00,70.4,67.3,29.91,SSW,196,4.0,8.0,90,0.00,,---,0.00,VWS V14.01,2013-08-24 06:25:00,
2013-08-24 01:30:00,70.3,67.6,29.91,SSW,198,11.0,11.0,91,0.00,,---,0.00,VWS V14.01,2013-08-24 06:30:00,
2013-08-24 01:35:00,70.3,67.6,29.91,SSW,202,6.0,10.0,91,0.00,,---,0.00,VWS V14.01,2013-08-24 06:35:00,
2013-08-24 01:40:00,70.3,67.6,29.91,SW,222,6.0,10.0,91,0.00,,---,0.00,VWS V14.01,2013-08-24 06:40:00,
2013-08-24 01:45:00,70.1,67.4,29.90,SW,216,6.0,10.0,91,0.00,,---,0.00,VWS V14.01,2013-08-24 06:45:00,
2013-08-24 01:50:00,70.1,67.4,29.90,SW,215,1.0,10.0,91,0.00,,---,0.00,VWS V14.01,2013-08-24 06:50:00,
2013-08-24 01:55:00,69.9,67.5,29.90,SW,219,4.0,11.0,92,0.00,,---,0.00,VWS V14.01,2013-08-24 06:55:00,
2013-08-24 02:00:00,69.9,67.5,29.91,South,188,6.0,11.0,92,0.00,,---,0.00,VWS V14.01,2013-08-24 07:00:00,
2013-08-24 02:05:00,69.9,67.5,29.91,SW,226,3.0,10.0,92,0.00,,---,0.00,VWS V14.01,2013-08-24 07:05:00,
2013-08-24 02:10:00,69.8,67.4,29.91,SW,219,6.0,10.0,92,0.00,,---,0.00,VWS V14.01,2013-08-24 07:10:00,
2013-08-24 02:15:00,69.8,67.7,29.91,SSW,208,5.0,12.0,93,0.00,,---,0.00,VWS V14.01,2013-08-24 07:15:00,
2013-08-24 02:20:00,69.8,67.7,29.91,SSW,213,3.0,12.0,93,0.00,,---,0.00,VWS V14.01,2013-08-24 07:20:00,
2013-08-24 02:25:00,69.8,67.7,29.91,SSW,212,7.0,10.0,93,0.00,,---,0.00,VWS V14.01,2013-08-24 07:25:00,
2013-08-24 02:30:00,69.8,67.7,29.90,SW,220,5.0,10.0,93,0.00,,---,0.00,VWS V14.01,2013-08-24 07:30:00,
2013-08-24 02:35:00,69.6,67.5,29.90,SSW,205,3.0,10.0,93,0.00,,---,0.00,VWS V14.01,2013-08-24 07:35:00,
2013-08-24 02:40:00,69.6,67.5,29.90,SW,216,2.0,10.0,93,0.00,,---,0.00,VWS V14.01,2013-08-24 07:40:00,
2013-08-24 02:45:00,69.4,67.3,29.91,SSW,202,4.0,8.0,93,0.00,,---,0.00,VWS V14.01,2013-08-24 07:45:00,
2013-08-24 02:50:00,69.4,67.6,29.91,SSW,195,6.0,8.0,94,0.00,,---,0.00,VWS V14.01,2013-08-24 07:50:00,
2013-08-24 02:55:00,69.4,67.6,29.91,SSW,202,6.0,11.0,94,0.00,,---,0.00,VWS V14.01,2013-08-24 07:55:00,
2013-08-24 03:00:00,69.4,67.6,29.91,SSW,199,5.0,11.0,94,0.00,,---,0.00,VWS V14.01,2013-08-24 08:00:00,
2013-08-24 03:05:00,69.3,67.5,29.91,SW,224,4.0,9.0,94,0.00,,---,0.00,VWS V14.01,2013-08-24 08:05:00,
2013-08-24 03:10:00,69.3,67.5,29.91,SSW,203,3.0,9.0,94,0.00,,---,0.00,VWS V14.01,2013-08-24 08:10:00,
2013-08-24 03:15:00,69.3,67.5,29.91,SSW,196,6.0,8.0,94,0.00,,---,0.00,VWS V14.01,2013-08-24 08:15:00,
2013-08-24 03:20:00,69.1,67.6,29.91,SSW,200,6.0,9.0,95,0.00,,---,0.00,VWS V14.01,2013-08-24 08:20:00,
2013-08-24 03:25:00,69.1,67.6,29.91,SSW,206,3.0,10.0,95,0.00,,---,0.00,VWS V14.01,2013-08-24 08:25:00,
2013-08-24 03:30:00,69.1,67.6,29.91,SSW,200,4.0,10.0,95,0.00,,---,0.00,VWS V14.01,2013-08-24 08:30:00,
2013-08-24 03:35:00,69.1,67.6,29.91,SSW,209,6.0,11.0,95,0.00,,---,0.00,VWS V14.01,2013-08-24 08:35:00,
2013-08-24 03:40:00,69.1,67.6,29.91,SW,219,3.0,11.0,95,0.00,,---,0.00,VWS V14.01,2013-08-24 08:40:00,
2013-08-24 03:45:00,68.9,67.4,29.91,SSW,209,3.0,10.0,95,0.00,,---,0.00,VWS V14.01,2013-08-24 08:45:00,
2013-08-24 03:50:00,68.9,67.4,29.91,SSW,208,3.0,10.0,95,0.00,,---,0.00,VWS V14.01,2013-08-24 08:50:00,
2013-08-24 03:55:00,68.9,67.4,29.91,SSW,205,5.0,9.0,95,0.00,,---,0.00,VWS V14.01,2013-08-24 08:55:00,
2013-08-24 04:00:00,68.9,67.7,29.91,SSW,196,6.0,9.0,96,0.00,,---,0.00,VWS V14.01,2013-08-24 09:00:00,
2013-08-24 04:05:00,68.9,67.4,29.91,SW,215,3.0,6.0,95,0.00,,---,0.00,VWS V14.01,2013-08-24 09:05:00,
2013-08-24 04:10:00,68.8,67.6,29.91,SSW,205,2.0,6.0,96,0.00,,---,0.00,VWS V14.01,2013-08-24 09:10:00,
2013-08-24 04:15:00,68.9,67.7,29.91,SSW,208,7.0,10.0,96,0.00,,---,0.00,VWS V14.01,2013-08-24 09:15:00,
2013-08-24 04:20:00,68.9,67.7,29.91,SW,219,4.0,10.0,96,0.00,,---,0.00,VWS V14.01,2013-08-24 09:20:00,
2013-08-24 04:25:00,68.9,67.7,29.91,SSW,195,6.0,8.0,96,0.00,,---,0.00,VWS V14.01,2013-08-24 09:25:00,
2013-08-24 04:30:00,68.9,67.7,29.91,SSW,206,7.0,8.0,96,0.00,,---,0.00,VWS V14.01,2013-08-24 09:30:00,
2013-08-24 04:35:00,68.9,67.7,29.91,SSW,208,3.0,9.0,96,0.00,,---,0.00,VWS V14.01,2013-08-24 09:35:00,
2013-08-24 04:40:00,68.9,67.4,29.91,SSW,203,7.0,9.0,95,0.00,,---,0.00,VWS V14.01,2013-08-24 09:40:00,
2013-08-24 04:45:00,68.8,67.3,29.91,SSW,203,4.0,9.0,95,0.00,,---,0.00,VWS V14.01,2013-08-24 09:45:00,
2013-08-24 04:50:00,68.8,67.3,29.91,SSW,208,2.0,10.0,95,0.00,,---,0.00,VWS V14.01,2013-08-24 09:50:00,
2013-08-24 04:55:00,68.9,67.4,29.91,SSW,203,5.0,8.0,95,0.00,,---,0.00,VWS V14.01,2013-08-24 09:55:00,
2013-08-24 05:00:00,68.9,67.4,29.91,SW,224,5.0,10.0,95,0.00,,---,0.00,VWS V14.01,2013-08-24 10:00:00,
2013-08-24 05:05:00,69.1,67.6,29.91,SSW,208,3.0,11.0,95,0.00,,---,0.00,VWS V14.01,2013-08-24 10:05:00,
2013-08-24 05:10:00,69.1,67.6,29.91,SSW,208,8.0,12.0,95,0.00,,---,0.00,VWS V14.01,2013-08-24 10:10:00,
2013-08-24 05:15:00,69.1,67.3,29.91,South,184,5.0,8.0,94,0.00,,---,0.00,VWS V14.01,2013-08-24 10:15:00,
2013-08-24 05:20:00,69.1,67.3,29.91,SSW,208,9.0,10.0,94,0.00,,---,0.00,VWS V14.01,2013-08-24 10:20:00,
2013-08-24 05:25:00,69.1,67.3,29.91,SSW,199,3.0,10.0,94,0.00,,---,0.00,VWS V14.01,2013-08-24 10:25:00,
2013-08-24 05:30:00,69.1,67.3,29.91,SSW,206,4.0,10.0,94,0.00,,---,0.00,VWS V14.01,2013-08-24 10:30:00,
2013-08-24 05:35:00,68.9,67.1,29.91,SW,215,6.0,10.0,94,0.00,,---,0.00,VWS V14.01,2013-08-24 10:35:00,
2013-08-24 05:40:00,68.9,67.1,29.91,SSW,195,7.0,12.0,94,0.00,,---,0.00,VWS V14.01,2013-08-24 10:40:00,
2013-08-24 05:45:00,68.9,67.1,29.90,SSW,213,9.0,12.0,94,0.00,,---,0.00,VWS V14.01,2013-08-24 10:45:00,
2013-08-24 05:50:00,68.9,67.1,29.90,SSW,200,7.0,12.0,94,0.00,,---,0.00,VWS V14.01,2013-08-24 10:50:00,
2013-08-24 05:55:00,68.9,67.1,29.90,SSW,202,9.0,11.0,94,0.00,,---,0.00,VWS V14.01,2013-08-24 10:55:00,
2013-08-24 06:00:00,68.9,67.1,29.91,SW,220,8.0,11.0,94,0.00,,---,0.00,VWS V14.01,2013-08-24 11:00:00,
2013-08-24 06:05:00,68.9,67.1,29.91,SSW,205,5.0,11.0,94,0.00,,---,0.00,VWS V14.01,2013-08-24 11:05:00,
2013-08-24 06:10:00,68.8,67.0,29.91,SSW,210,7.0,11.0,94,0.00,,---,0.00,VWS V14.01,2013-08-24 11:10:00,
2013-08-24 06:14:00,68.8,67.3,29.91,SSW,200,8.0,11.0,95,0.00,,---,0.00,VWS V14.01,2013-08-24 11:14:00,
2013-08-24 06:19:00,68.8,67.3,29.91,SW,230,7.0,11.0,95,0.00,,---,0.00,VWS V14.01,2013-08-24 11:19:00,
2013-08-24 06:24:00,68.8,67.3,29.91,SSW,205,3.0,12.0,95,0.00,,---,0.00,VWS V14.01,2013-08-24 11:24:00,
2013-08-24 06:30:00,68.8,67.3,29.91,SW,215,6.0,12.0,95,0.00,,---,0.00,VWS V14.01,2013-08-24 11:30:00,
2013-08-24 06:34:00,68.9,67.1,29.91,SW,215,6.0,10.0,94,0.00,,---,0.00,VWS V14.01,2013-08-24 11:34:00,
2013-08-24 06:39:00,68.9,67.1,29.91,South,185,6.0,16.0,94,0.00,,---,0.00,VWS V14.01,2013-08-24 11:39:00,
2013-08-24 06:44:00,68.9,67.1,29.91,SSW,202,6.0,11.0,94,0.00,,---,0.00,VWS V14.01,2013-08-24 11:44:00,
2013-08-24 06:49:00,69.1,67.3,29.91,SSW,210,7.0,12.0,94,0.00,,---,0.00,VWS V14.01,2013-08-24 11:49:00,
2013-08-24 06:54:00,69.1,67.3,29.91,SW,215,8.0,9.0,94,0.00,,---,0.00,VWS V14.01,2013-08-24 11:54:00,
2013-08-24 06:59:00,69.3,67.2,29.91,SSW,203,8.0,12.0,93,0.00,,---,0.00,VWS V14.01,2013-08-24 11:59:00,
2013-08-24 07:04:00,69.4,67.3,29.91,SSW,210,4.0,14.0,93,0.00,,---,0.00,VWS V14.01,2013-08-24 12:04:00,
2013-08-24 07:09:00,69.4,67.3,29.91,SSW,195,2.0,14.0,93,0.00,,---,0.00,VWS V14.01,2013-08-24 12:09:00,
2013-08-24 07:14:00,69.6,67.5,29.91,SSW,199,9.0,10.0,93,0.00,,---,0.00,VWS V14.01,2013-08-24 12:14:00,
2013-08-24 07:19:00,69.6,67.5,29.90,SSW,195,11.0,13.0,93,0.00,,---,0.00,VWS V14.01,2013-08-24 12:19:00,
2013-08-24 07:24:00,69.8,67.4,29.90,SSW,205,8.0,13.0,92,0.00,,---,0.00,VWS V14.01,2013-08-24 12:24:00,
2013-08-24 07:29:00,69.9,67.5,29.90,SSW,213,10.0,13.0,92,0.00,,---,0.00,VWS V14.01,2013-08-24 12:29:00,
2013-08-24 07:34:00,70.3,67.6,29.90,SW,222,5.0,12.0,91,0.00,,---,0.00,VWS V14.01,2013-08-24 12:34:00,
2013-08-24 07:39:00,70.6,67.5,29.90,SSW,199,9.0,13.0,90,0.00,,---,0.00,VWS V14.01,2013-08-24 12:39:00,
2013-08-24 07:44:00,70.8,67.7,29.90,SSW,195,7.0,12.0,90,0.00,,---,0.00,VWS V14.01,2013-08-24 12:44:00,
2013-08-24 07:49:00,70.9,67.5,29.90,WSW,241,7.0,14.0,89,0.00,,---,0.00,VWS V14.01,2013-08-24 12:49:00,
2013-08-24 07:54:00,70.9,67.8,29.90,SW,232,9.0,18.0,90,0.00,,---,0.00,VWS V14.01,2013-08-24 12:54:00,
2013-08-24 07:59:00,70.9,67.5,29.90,SSW,200,10.0,18.0,89,0.00,,---,0.00,VWS V14.01,2013-08-24 12:59:00,
2013-08-24 08:04:00,71.1,67.7,29.89,South,189,8.0,13.0,89,0.00,,---,0.00,VWS V14.01,2013-08-24 13:04:00,
2013-08-24 08:09:00,71.1,67.7,29.89,SSW,208,9.0,13.0,89,0.00,,---,0.00,VWS V14.01,2013-08-24 13:09:00,
2013-08-24 08:14:00,71.5,67.8,29.89,SW,226,5.0,9.0,88,0.00,,---,0.00,VWS V14.01,2013-08-24 13:14:00,
2013-08-24 08:19:00,71.6,67.9,29.90,SSW,203,6.0,16.0,88,0.00,,---,0.00,VWS V14.01,2013-08-24 13:19:00,
2013-08-24 08:24:00,71.8,68.1,29.90,SSW,198,10.0,11.0,88,0.00,,---,0.00,VWS V14.01,2013-08-24 13:24:00,
2013-08-24 08:29:00,71.8,67.7,29.90,SW,233,5.0,14.0,87,0.00,,---,0.00,VWS V14.01,2013-08-24 13:29:00,
2013-08-24 08:34:00,72.0,67.9,29.91,SSW,210,6.0,10.0,87,0.00,,---,0.00,VWS V14.01,2013-08-24 13:34:00,
2013-08-24 08:39:00,72.1,68.0,29.91,South,189,7.0,11.0,87,0.00,,---,0.00,VWS V14.01,2013-08-24 13:39:00,
2013-08-24 08:44:00,72.3,68.2,29.91,SSW,210,4.0,12.0,87,0.00,,---,0.00,VWS V14.01,2013-08-24 13:44:00,
2013-08-24 08:49:00,72.3,68.2,29.91,SW,223,5.0,12.0,87,0.00,,---,0.00,VWS V14.01,2013-08-24 13:49:00,
2013-08-24 08:54:00,72.7,68.3,29.91,SSW,210,3.0,7.0,86,0.00,,---,0.00,VWS V14.01,2013-08-24 13:54:00,
2013-08-24 08:59:00,73.0,68.2,29.91,SW,222,3.0,11.0,85,0.00,,---,0.00,VWS V14.01,2013-08-24 13:59:00,
2013-08-24 09:04:00,73.2,68.4,29.90,South,188,10.0,12.0,85,0.00,,---,0.00,VWS V14.01,2013-08-24 14:04:00,
2013-08-24 09:09:00,73.7,68.9,29.90,SW,230,11.0,12.0,85,0.00,,---,0.00,VWS V14.01,2013-08-24 14:09:00,
2013-08-24 09:14:00,74.6,68.8,29.90,SW,229,5.0,16.0,82,0.00,,---,0.00,VWS V14.01,2013-08-24 14:14:00,
2013-08-24 09:19:00,75.1,68.9,29.89,SW,216,11.0,19.0,81,0.00,,---,0.00,VWS V14.01,2013-08-24 14:19:00,
2013-08-24 09:24:00,75.6,69.4,29.89,SW,226,7.0,13.0,81,0.00,,---,0.00,VWS V14.01,2013-08-24 14:24:00,
2013-08-24 09:29:00,76.1,69.5,29.89,SSW,213,8.0,18.0,80,0.00,,---,0.00,VWS V14.01,2013-08-24 14:29:00,
2013-08-24 09:34:00,76.8,69.8,29.88,SW,215,5.0,14.0,79,0.00,,---,0.00,VWS V14.01,2013-08-24 14:34:00,
2013-08-24 09:39:00,77.0,69.6,29.88,SSW,210,10.0,16.0,78,0.00,,---,0.00,VWS V14.01,2013-08-24 14:39:00,
2013-08-24 09:44:00,76.8,69.4,29.88,SSW,200,13.0,20.0,78,0.00,,---,0.00,VWS V14.01,2013-08-24 14:44:00,
2013-08-24 09:49:00,77.4,69.2,29.87,SW,220,10.0,20.0,76,0.00,,---,0.00,VWS V14.01,2013-08-24 14:49:00,
2013-08-24 09:54:00,77.7,69.9,29.87,SW,232,7.0,17.0,77,0.00,,---,0.00,VWS V14.01,2013-08-24 14:54:00,
2013-08-24 09:59:00,77.9,69.3,29.87,SW,234,12.0,17.0,75,0.00,,---,0.00,VWS V14.01,2013-08-24 14:59:00,
2013-08-24 10:04:00,77.6,69.4,29.87,SSW,200,6.0,18.0,76,0.00,,---,0.00,VWS V14.01,2013-08-24 15:04:00,
2013-08-24 10:09:00,77.6,69.8,29.87,SW,236,11.0,18.0,77,0.00,,---,0.00,VWS V14.01,2013-08-24 15:09:00,
2013-08-24 10:14:00,77.4,69.6,29.87,SSW,193,10.0,16.0,77,0.00,,---,0.00,VWS V14.01,2013-08-24 15:14:00,
2013-08-24 10:19:00,77.4,69.6,29.87,SW,226,13.0,17.0,77,0.00,,---,0.00,VWS V14.01,2013-08-24 15:19:00,
2013-08-24 10:24:00,77.4,69.6,29.87,SSW,212,7.0,18.0,77,0.00,,---,0.00,VWS V14.01,2013-08-24 15:24:00,
2013-08-24 10:29:00,76.8,69.4,29.87,SSW,203,8.0,18.0,78,0.00,,---,0.00,VWS V14.01,2013-08-24 15:29:00,
2013-08-24 10:34:00,77.0,69.6,29.87,SW,229,7.0,17.0,78,0.00,,---,0.00,VWS V14.01,2013-08-24 15:34:00,
2013-08-24 10:39:00,77.6,69.8,29.87,WSW,247,5.0,17.0,77,0.00,,---,0.00,VWS V14.01,2013-08-24 15:39:00,
2013-08-24 10:44:00,78.3,70.1,29.87,SW,215,7.0,14.0,76,0.00,,---,0.00,VWS V14.01,2013-08-24 15:44:00,
2013-08-24 10:49:00,78.8,70.2,29.86,SSW,199,13.0,18.0,75,0.00,,---,0.00,VWS V14.01,2013-08-24 15:49:00,
2013-08-24 10:54:00,79.0,70.4,29.86,South,191,8.0,16.0,75,0.00,,---,0.00,VWS V14.01,2013-08-24 15:54:00,
2013-08-24 10:59:00,79.4,70.8,29.86,SSW,213,8.0,16.0,75,0.00,,---,0.00,VWS V14.01,2013-08-24 15:59:00,
2013-08-24 11:04:00,79.8,70.4,29.86,SSW,200,10.0,12.0,73,0.00,,---,0.00,VWS V14.01,2013-08-24 16:04:00,
2013-08-24 11:09:00,79.8,70.8,29.86,SW,232,8.0,14.0,74,0.00,,---,0.00,VWS V14.01,2013-08-24 16:09:00,
2013-08-24 11:14:00,80.1,70.7,29.86,SSW,199,12.0,17.0,73,0.00,,---,0.00,VWS V14.01,2013-08-24 16:14:00,
2013-08-24 11:19:00,80.1,70.3,29.86,SSW,209,17.0,20.0,72,0.00,,---,0.00,VWS V14.01,2013-08-24 16:19:00,
2013-08-24 11:24:00,80.3,70.5,29.86,SW,233,7.0,24.0,72,0.00,,---,0.00,VWS V14.01,2013-08-24 16:24:00,
2013-08-24 11:29:00,80.3,70.5,29.86,SSW,199,6.0,24.0,72,0.00,,---,0.00,VWS V14.01,2013-08-24 16:29:00,
2013-08-24 11:34:00,80.5,70.7,29.86,WSW,239,7.0,17.0,72,0.00,,---,0.00,VWS V14.01,2013-08-24 16:34:00,
2013-08-24 11:39:00,80.9,71.0,29.86,SW,224,9.0,18.0,72,0.00,,---,0.00,VWS V14.01,2013-08-24 16:39:00,
2013-08-24 11:44:00,81.2,71.3,29.86,SW,217,4.0,16.0,72,0.00,,---,0.00,VWS V14.01,2013-08-24 16:44:00,
2013-08-24 11:49:00,81.6,71.3,29.85,SSW,195,5.0,16.0,71,0.00,,---,0.00,VWS V14.01,2013-08-24 16:49:00,
2013-08-24 11:54:00,81.6,70.9,29.85,SSW,192,13.0,18.0,70,0.00,,---,0.00,VWS V14.01,2013-08-24 16:54:00,
2013-08-24 11:59:00,81.4,71.1,29.85,WSW,253,13.0,21.0,71,0.00,,---,0.00,VWS V14.01,2013-08-24 16:59:00,
2013-08-24 12:04:00,82.0,72.1,29.85,SW,215,3.0,18.0,72,0.00,,---,0.00,VWS V14.01,2013-08-24 17:04:00,
2013-08-24 12:09:00,82.4,70.8,29.85,SW,216,10.0,21.0,68,0.00,,---,0.00,VWS V14.01,2013-08-24 17:09:00,
2013-08-24 12:14:00,82.4,70.8,29.85,SSW,208,16.0,22.0,68,0.00,,---,0.00,VWS V14.01,2013-08-24 17:14:00,
2013-08-24 12:19:00,82.2,71.0,29.84,SSW,209,6.0,22.0,69,0.00,,---,0.00,VWS V14.01,2013-08-24 17:19:00,
2013-08-24 12:24:00,82.6,71.8,29.84,WNW,288,10.0,19.0,70,0.00,,---,0.00,VWS V14.01,2013-08-24 17:24:00,
2013-08-24 12:29:00,82.8,71.6,29.84,SSW,212,5.0,19.0,69,0.00,,---,0.00,VWS V14.01,2013-08-24 17:29:00,
2013-08-24 12:33:00,82.6,71.8,29.84,SW,217,12.0,16.0,70,0.00,,---,0.00,VWS V14.01,2013-08-24 17:33:00,
2013-08-24 12:38:00,83.2,71.6,29.84,SW,227,7.0,19.0,68,0.00,,---,0.00,VWS V14.01,2013-08-24 17:38:00,
2013-08-24 12:43:00,83.4,71.3,29.84,SW,227,7.0,18.0,67,0.00,,---,0.00,VWS V14.01,2013-08-24 17:43:00,
2013-08-24 12:48:00,83.8,71.7,29.83,WSW,246,13.0,18.0,67,0.00,,---,0.00,VWS V14.01,2013-08-24 17:48:00,
2013-08-24 12:53:00,83.8,71.7,29.83,SW,217,11.0,17.0,67,0.00,,---,0.00,VWS V14.01,2013-08-24 17:53:00,
2013-08-24 12:58:00,83.8,71.7,29.83,SW,233,13.0,17.0,67,0.00,,---,0.00,VWS V14.01,2013-08-24 17:58:00,
2013-08-24 13:03:00,84.0,71.9,29.83,WSW,240,12.0,19.0,67,0.00,,---,0.00,VWS V14.01,2013-08-24 18:03:00,
2013-08-24 13:08:00,84.5,71.9,29.83,SSW,205,20.0,20.0,66,0.00,,---,0.00,VWS V14.01,2013-08-24 18:08:00,
2013-08-24 13:13:00,84.5,71.0,29.83,SSW,213,12.0,19.0,64,0.00,,---,0.00,VWS V14.01,2013-08-24 18:13:00,
2013-08-24 13:18:00,84.5,72.3,29.83,West,265,11.0,19.0,67,0.00,,---,0.00,VWS V14.01,2013-08-24 18:18:00,
2013-08-24 13:23:00,84.5,71.0,29.83,WSW,246,9.0,19.0,64,0.00,,---,0.00,VWS V14.01,2013-08-24 18:23:00,
2013-08-24 13:28:00,85.3,70.3,29.83,WSW,247,14.0,19.0,61,0.00,,---,0.00,VWS V14.01,2013-08-24 18:28:00,
2013-08-24 13:33:00,85.5,71.5,29.83,SSW,209,7.0,19.0,63,0.00,,---,0.00,VWS V14.01,2013-08-24 18:33:00,
2013-08-24 13:38:00,85.9,71.4,29.83,SW,220,7.0,19.0,62,0.00,,---,0.00,VWS V14.01,2013-08-24 18:38:00,
2013-08-24 13:43:00,85.7,70.7,29.83,SW,222,9.0,20.0,61,0.00,,---,0.00,VWS V14.01,2013-08-24 18:43:00,
2013-08-24 13:48:00,85.7,70.2,29.82,SSW,208,8.0,20.0,60,0.00,,---,0.00,VWS V14.01,2013-08-24 18:48:00,
2013-08-24 13:53:00,85.7,70.2,29.82,SW,234,15.0,18.0,60,0.00,,---,0.00,VWS V14.01,2013-08-24 18:53:00,
2013-08-24 13:58:00,85.7,69.7,29.82,SW,217,16.0,22.0,59,0.00,,---,0.00,VWS V14.01,2013-08-24 18:58:00,
2013-08-24 14:03:00,86.1,70.1,29.82,South,186,6.0,19.0,59,0.00,,---,0.00,VWS V14.01,2013-08-24 19:03:00,
2013-08-24 14:08:00,86.1,70.1,29.82,SSW,199,10.0,19.0,59,0.00,,---,0.00,VWS V14.01,2013-08-24 19:08:00,
2013-08-24 14:13:00,86.3,70.3,29.82,SSW,198,12.0,19.0,59,0.00,,---,0.00,VWS V14.01,2013-08-24 19:13:00,
2013-08-24 14:18:00,85.9,70.4,29.82,SSW,208,7.0,25.0,60,0.00,,---,0.00,VWS V14.01,2013-08-24 19:18:00,
2013-08-24 14:23:00,86.1,70.1,29.82,SSW,198,9.0,21.0,59,0.00,,---,0.00,VWS V14.01,2013-08-24 19:23:00,
2013-08-24 14:28:00,86.5,70.5,29.82,SW,227,12.0,22.0,59,0.00,,---,0.00,VWS V14.01,2013-08-24 19:28:00,
2013-08-24 14:33:00,86.7,69.7,29.81,WSW,247,7.0,19.0,57,0.00,,---,0.00,VWS V14.01,2013-08-24 19:33:00,
2013-08-24 14:38:00,86.5,70.0,29.81,SSW,213,11.0,20.0,58,0.00,,---,0.00,VWS V14.01,2013-08-24 19:38:00,
2013-08-24 14:43:00,86.7,70.2,29.81,WSW,246,11.0,17.0,58,0.00,,---,0.00,VWS V14.01,2013-08-24 19:43:00,
2013-08-24 14:48:00,87.0,69.9,29.81,WSW,241,13.0,22.0,57,0.00,,---,0.00,VWS V14.01,2013-08-24 19:48:00,
2013-08-24 14:53:00,86.7,70.2,29.81,WSW,237,22.0,22.0,58,0.00,,---,0.00,VWS V14.01,2013-08-24 19:53:00,
2013-08-24 14:58:00,87.0,70.4,29.81,SW,215,5.0,24.0,58,0.00,,---,0.00,VWS V14.01,2013-08-24 19:58:00,
2013-08-24 15:03:00,87.2,71.1,29.80,SSW,202,5.0,19.0,59,0.00,,---,0.00,VWS V14.01,2013-08-24 20:03:00,
2013-08-24 15:08:00,87.2,70.6,29.80,SW,216,11.0,20.0,58,0.00,,---,0.00,VWS V14.01,2013-08-24 20:08:00,
2013-08-24 15:13:00,87.2,70.6,29.80,WSW,239,13.0,20.0,58,0.00,,---,0.00,VWS V14.01,2013-08-24 20:13:00,
2013-08-24 15:18:00,87.4,70.8,29.80,SSW,202,13.0,20.0,58,0.00,,---,0.00,VWS V14.01,2013-08-24 20:18:00,
2013-08-24 15:23:00,87.6,70.5,29.80,South,191,13.0,18.0,57,0.00,,---,0.00,VWS V14.01,2013-08-24 20:23:00,
2013-08-24 15:28:00,87.2,70.6,29.80,SSW,212,11.0,25.0,58,0.00,,---,0.00,VWS V14.01,2013-08-24 20:28:00,
2013-08-24 15:33:00,87.2,70.1,29.79,SW,232,11.0,21.0,57,0.00,,---,0.00,VWS V14.01,2013-08-24 20:33:00,
2013-08-24 15:38:00,86.5,70.5,29.79,SW,224,7.0,26.0,59,0.00,,---,0.00,VWS V14.01,2013-08-24 20:38:00,
2013-08-24 15:43:00,87.0,70.9,29.79,SW,219,9.0,17.0,59,0.00,,---,0.00,VWS V14.01,2013-08-24 20:43:00,
2013-08-24 15:48:00,86.7,71.2,29.79,SW,216,12.0,25.0,60,0.00,,---,0.00,VWS V14.01,2013-08-24 20:48:00,
2013-08-24 15:53:00,86.7,70.7,29.79,SW,220,12.0,21.0,59,0.00,,---,0.00,VWS V14.01,2013-08-24 20:53:00,
2013-08-24 15:58:00,87.0,70.9,29.79,SW,219,7.0,21.0,59,0.00,,---,0.00,VWS V14.01,2013-08-24 20:58:00,
2013-08-24 16:03:00,87.0,70.9,29.79,SW,217,12.0,20.0,59,0.00,,---,0.00,VWS V14.01,2013-08-24 21:03:00,
2013-08-24 16:08:00,86.1,70.6,29.79,WSW,256,22.0,24.0,60,0.00,,---,0.00,VWS V14.01,2013-08-24 21:08:00,
2013-08-24 16:13:00,85.5,70.5,29.79,WSW,241,10.0,18.0,61,0.00,,---,0.00,VWS V14.01,2013-08-24 21:13:00,
2013-08-24 16:18:00,86.1,71.1,29.78,SW,215,13.0,20.0,61,0.00,,---,0.00,VWS V14.01,2013-08-24 21:18:00,
2013-08-24 16:23:00,85.7,70.7,29.78,SSW,213,13.0,24.0,61,0.00,,---,0.00,VWS V14.01,2013-08-24 21:23:00,
2013-08-24 16:28:00,85.7,70.2,29.78,SW,233,13.0,25.0,60,0.00,,---,0.00,VWS V14.01,2013-08-24 21:28:00,
2013-08-24 16:33:00,85.7,69.7,29.78,SW,220,14.0,26.0,59,0.00,,---,0.00,VWS V14.01,2013-08-24 21:33:00,
2013-08-24 16:38:00,85.7,70.7,29.78,SW,222,16.0,26.0,61,0.00,,---,0.00,VWS V14.01,2013-08-24 21:38:00,
2013-08-24 16:43:00,85.7,70.2,29.78,SSW,199,9.0,24.0,60,0.00,,---,0.00,VWS V14.01,2013-08-24 21:43:00,
2013-08-24 16:48:00,85.5,70.5,29.77,SSW,203,7.0,26.0,61,0.00,,---,0.00,VWS V14.01,2013-08-24 21:48:00,
2013-08-24 16:53:00,85.1,70.6,29.77,WSW,240,13.0,21.0,62,0.00,,---,0.00,VWS V14.01,2013-08-24 21:53:00,
2013-08-24 16:58:00,84.9,70.4,29.77,SW,216,8.0,22.0,62,0.00,,---,0.00,VWS V14.01,2013-08-24 21:58:00,
2013-08-24 17:03:00,84.9,70.9,29.77,West,265,14.0,21.0,63,0.00,,---,0.00,VWS V14.01,2013-08-24 22:03:00,
2013-08-24 17:08:00,84.7,70.7,29.77,SW,224,15.0,24.0,63,0.00,,---,0.00,VWS V14.01,2013-08-24 22:08:00,
2013-08-24 17:13:00,84.7,71.2,29.77,SSW,203,16.0,18.0,64,0.00,,---,0.00,VWS V14.01,2013-08-24 22:13:00,
2013-08-24 17:18:00,84.7,71.2,29.77,SSW,198,13.0,21.0,64,0.00,,---,0.00,VWS V14.01,2013-08-24 22:18:00,
2013-08-24 17:23:00,84.5,70.5,29.77,SW,227,12.0,26.0,63,0.00,,---,0.00,VWS V14.01,2013-08-24 22:23:00,
2013-08-24 17:28:00,84.3,70.3,29.77,SW,220,7.0,26.0,63,0.00,,---,0.00,VWS V14.01,2013-08-24 22:28:00,
2013-08-24 17:33:00,84.5,71.4,29.78,SW,223,10.0,19.0,65,0.00,,---,0.00,VWS V14.01,2013-08-24 22:33:00,
2013-08-24 17:38:00,84.3,71.3,29.78,SSW,205,7.0,20.0,65,0.00,,---,0.00,VWS V14.01,2013-08-24 22:38:00,
2013-08-24 17:43:00,84.0,70.5,29.78,SW,232,10.0,28.0,64,0.00,,---,0.00,VWS V14.01,2013-08-24 22:43:00,
2013-08-24 17:48:00,84.0,71.4,29.77,SW,229,11.0,28.0,66,0.00,,---,0.00,VWS V14.01,2013-08-24 22:48:00,
2013-08-24 17:53:00,83.6,71.5,29.77,WSW,257,14.0,19.0,67,0.00,,---,0.00,VWS V14.01,2013-08-24 22:53:00,
2013-08-24 17:58:00,83.4,71.3,29.77,South,182,20.0,33.0,67,0.00,,---,0.00,VWS V14.01,2013-08-24 22:58:00,
2013-08-24 18:03:00,83.4,71.3,29.77,SSW,202,16.0,19.0,67,0.00,,---,0.00,VWS V14.01,2013-08-24 23:03:00,
2013-08-24 18:08:00,83.4,71.7,29.77,WSW,241,13.0,19.0,68,0.00,,---,0.00,VWS V14.01,2013-08-24 23:08:00,
2013-08-24 18:13:00,83.4,71.3,29.77,SW,223,18.0,20.0,67,0.00,,---,0.00,VWS V14.01,2013-08-24 23:13:00,
2013-08-24 18:18:00,83.2,71.6,29.76,WSW,237,13.0,21.0,68,0.00,,---,0.00,VWS V14.01,2013-08-24 23:18:00,
2013-08-24 18:23:00,83.4,72.2,29.76,SW,226,14.0,14.0,69,0.00,,---,0.00,VWS V14.01,2013-08-24 23:23:00,
2013-08-24 18:28:00,83.2,71.6,29.76,SSW,208,5.0,20.0,68,0.00,,---,0.00,VWS V14.01,2013-08-24 23:28:00,
2013-08-24 18:33:00,83.2,71.6,29.76,SW,216,10.0,20.0,68,0.00,,---,0.00,VWS V14.01,2013-08-24 23:33:00,
2013-08-24 18:38:00,83.0,71.4,29.76,SSW,210,9.0,22.0,68,0.00,,---,0.00,VWS V14.01,2013-08-24 23:38:00,
2013-08-24 18:43:00,82.8,70.7,29.76,WSW,239,11.0,27.0,67,0.00,,---,0.00,VWS V14.01,2013-08-24 23:43:00,
2013-08-24 18:48:00,82.6,71.0,29.77,WSW,250,16.0,27.0,68,0.00,,---,0.00,VWS V14.01,2013-08-24 23:48:00,
2013-08-24 18:53:00,82.4,70.8,29.77,SSW,206,7.0,17.0,68,0.00,,---,0.00,VWS V14.01,2013-08-24 23:53:00,
2013-08-24 18:58:00,82.4,71.2,29.77,WSW,237,6.0,22.0,69,0.00,,---,0.00,VWS V14.01,2013-08-24 23:58:00,
2013-08-24 19:03:00,82.2,71.4,29.78,WSW,247,11.0,16.0,70,0.00,,---,0.00,VWS V14.01,2013-08-25 00:03:00,
2013-08-24 19:08:00,82.0,71.3,29.78,SSW,195,13.0,20.0,70,0.00,,---,0.00,VWS V14.01,2013-08-25 00:08:00,
2013-08-24 19:13:00,81.8,71.5,29.78,WSW,240,22.0,22.0,71,0.00,,---,0.00,VWS V14.01,2013-08-25 00:13:00,
2013-08-24 19:18:00,81.6,71.7,29.77,SW,230,6.0,22.0,72,0.00,,---,0.00,VWS V14.01,2013-08-25 00:18:00,
2013-08-24 19:23:00,81.4,71.5,29.77,SSW,208,12.0,16.0,72,0.00,,---,0.00,VWS V14.01,2013-08-25 00:23:00,
2013-08-24 19:27:00,81.2,71.7,29.77,WSW,243,11.0,19.0,73,0.00,,---,0.00,VWS V14.01,2013-08-25 00:27:00,
2013-08-24 19:32:00,81.1,72.0,29.77,SW,230,10.0,14.0,74,0.00,,---,0.00,VWS V14.01,2013-08-25 00:32:00,
2013-08-24 19:37:00,80.9,71.8,29.77,SW,230,7.0,17.0,74,0.00,,---,0.00,VWS V14.01,2013-08-25 00:37:00,
2013-08-24 19:42:00,80.7,72.0,29.77,South,191,6.0,18.0,75,0.00,,---,0.00,VWS V14.01,2013-08-25 00:42:00,
2013-08-24 19:47:00,80.5,71.8,29.77,SSW,206,6.0,18.0,75,0.00,,---,0.00,VWS V14.01,2013-08-25 00:47:00,
2013-08-24 19:52:00,80.3,72.1,29.77,SW,224,10.0,11.0,76,0.00,,---,0.00,VWS V14.01,2013-08-25 00:52:00,
2013-08-24 19:57:00,80.1,71.9,29.77,WSW,253,7.0,14.0,76,0.00,,---,0.00,VWS V14.01,2013-08-25 00:57:00,
2013-08-24 20:02:00,80.1,72.2,29.77,WSW,237,7.0,13.0,77,0.00,,---,0.00,VWS V14.01,2013-08-25 01:02:00,
2013-08-24 20:07:00,79.9,72.1,29.77,SW,224,8.0,18.0,77,0.00,,---,0.00,VWS V14.01,2013-08-25 01:07:00,
2013-08-24 20:12:00,79.9,72.4,29.77,WSW,239,5.0,11.0,78,0.00,,---,0.00,VWS V14.01,2013-08-25 01:12:00,
2013-08-24 20:17:00,79.8,72.3,29.77,SW,219,8.0,17.0,78,0.00,,---,0.00,VWS V14.01,2013-08-25 01:17:00,
2013-08-24 20:22:00,79.6,72.5,29.77,South,181,5.0,16.0,79,0.00,,---,0.00,VWS V14.01,2013-08-25 01:22:00,
2013-08-24 20:27:00,79.6,72.5,29.77,SW,215,8.0,16.0,79,0.00,,---,0.00,VWS V14.01,2013-08-25 01:27:00,
2013-08-24 20:32:00,79.4,72.7,29.77,SSW,213,6.0,12.0,80,0.00,,---,0.00,VWS V14.01,2013-08-25 01:32:00,
2013-08-24 20:37:00,79.4,72.7,29.77,SW,220,8.0,13.0,80,0.00,,---,0.00,VWS V14.01,2013-08-25 01:37:00,
2013-08-24 20:42:00,79.2,72.9,29.77,SW,230,6.0,11.0,81,0.00,,---,0.00,VWS V14.01,2013-08-25 01:42:00,
2013-08-24 20:47:00,79.0,72.7,29.78,SW,219,6.0,12.0,81,0.00,,---,0.00,VWS V14.01,2013-08-25 01:47:00,
2013-08-24 20:52:00,78.8,72.8,29.78,SW,215,6.0,11.0,82,0.00,,---,0.00,VWS V14.01,2013-08-25 01:52:00,
2013-08-24 20:57:00,78.8,72.8,29.78,WSW,241,7.0,11.0,82,0.00,,---,0.00,VWS V14.01,2013-08-25 01:57:00,
2013-08-24 21:02:00,78.6,72.7,29.78,SW,224,6.0,10.0,82,0.00,,---,0.00,VWS V14.01,2013-08-25 02:02:00,
2013-08-24 21:07:00,78.6,72.7,29.78,SW,226,3.0,11.0,82,0.00,,---,0.00,VWS V14.01,2013-08-25 02:07:00,
2013-08-24 21:12:00,78.6,72.7,29.78,SW,223,5.0,13.0,82,0.00,,---,0.00,VWS V14.01,2013-08-25 02:12:00,
2013-08-24 21:17:00,78.6,72.7,29.77,WSW,237,10.0,13.0,82,0.00,,---,0.00,VWS V14.01,2013-08-25 02:17:00,
2013-08-24 21:22:00,78.8,72.8,29.77,SW,219,4.0,13.0,82,0.00,,---,0.00,VWS V14.01,2013-08-25 02:22:00,
2013-08-24 21:27:00,78.8,72.5,29.77,WSW,247,11.0,19.0,81,0.00,,---,0.00,VWS V14.01,2013-08-25 02:27:00,
2013-08-24 21:32:00,78.8,72.8,29.77,SW,215,3.0,18.0,82,0.00,,---,0.00,VWS V14.01,2013-08-25 02:32:00,
2013-08-24 21:37:00,79.0,72.7,29.77,WSW,241,10.0,19.0,81,0.00,,---,0.00,VWS V14.01,2013-08-25 02:37:00,
2013-08-24 21:42:00,79.0,72.7,29.77,SW,222,10.0,14.0,81,0.00,,---,0.00,VWS V14.01,2013-08-25 02:42:00,
2013-08-24 21:47:00,79.0,72.7,29.77,WSW,239,16.0,16.0,81,0.00,,---,0.00,VWS V14.01,2013-08-25 02:47:00,
2013-08-24 21:52:00,79.0,72.7,29.77,SW,224,5.0,11.0,81,0.00,,---,0.00,VWS V14.01,2013-08-25 02:52:00,
2013-08-24 21:57:00,79.0,72.7,29.77,WSW,250,6.0,19.0,81,0.00,,---,0.00,VWS V14.01,2013-08-25 02:57:00,
2013-08-24 22:02:00,79.0,72.7,29.77,WSW,246,10.0,13.0,81,0.00,,---,0.00,VWS V14.01,2013-08-25 03:02:00,
2013-08-24 22:07:00,79.2,72.5,29.77,WSW,243,7.0,16.0,80,0.00,,---,0.00,VWS V14.01,2013-08-25 03:07:00,
2013-08-24 22:12:00,79.4,72.7,29.77,West,261,9.0,16.0,80,0.00,,---,0.00,VWS V14.01,2013-08-25 03:12:00,
2013-08-24 22:17:00,79.4,72.7,29.78,WSW,248,11.0,18.0,80,0.00,,---,0.00,VWS V14.01,2013-08-25 03:17:00,
2013-08-24 22:22:00,79.4,72.3,29.78,WSW,240,7.0,17.0,79,0.00,,---,0.00,VWS V14.01,2013-08-25 03:22:00,
2013-08-24 22:27:00,79.4,72.3,29.78,WSW,244,7.0,17.0,79,0.00,,---,0.00,VWS V14.01,2013-08-25 03:27:00,
2013-08-24 22:32:00,79.2,72.5,29.78,SW,219,7.0,11.0,80,0.00,,---,0.00,VWS V14.01,2013-08-25 03:32:00,
2013-08-24 22:37:00,79.2,72.1,29.78,SW,224,7.0,12.0,79,0.00,,---,0.00,VWS V14.01,2013-08-25 03:37:00,
2013-08-24 22:42:00,79.4,72.3,29.78,SW,226,7.0,17.0,79,0.00,,---,0.00,VWS V14.01,2013-08-25 03:42:00,
2013-08-24 22:47:00,79.4,71.9,29.79,WSW,246,9.0,17.0,78,0.00,,---,0.00,VWS V14.01,2013-08-25 03:47:00,
2013-08-24 22:52:00,79.6,72.1,29.79,WSW,240,8.0,14.0,78,0.00,,---,0.00,VWS V14.01,2013-08-25 03:52:00,
2013-08-24 22:57:00,79.6,72.1,29.79,WNW,289,7.0,15.0,78,0.00,,---,0.00,VWS V14.01,2013-08-25 03:57:00,
2013-08-24 23:01:00,79.4,71.9,29.79,SSW,195,12.0,15.0,78,0.00,,---,0.00,VWS V14.01,2013-08-25 04:01:00,
2013-08-24 23:02:00,79.4,71.9,29.79,West,260,7.0,15.0,78,0.00,,---,0.00,VWS V14.01,2013-08-25 04:02:00,
2013-08-24 23:07:00,79.2,71.8,29.79,WSW,237,8.0,15.0,78,0.00,,---,0.00,VWS V14.01,2013-08-25 04:07:00,
2013-08-24 23:12:00,79.4,71.6,29.79,WSW,246,8.0,12.0,77,0.00,,---,0.00,VWS V14.01,2013-08-25 04:12:00,
2013-08-24 23:17:00,79.4,71.6,29.79,WSW,246,7.0,16.0,77,0.00,,---,0.00,VWS V14.01,2013-08-25 04:17:00,
2013-08-24 23:22:00,79.4,71.6,29.79,SSW,205,11.0,16.0,77,0.00,,---,0.00,VWS V14.01,2013-08-25 04:22:00,
2013-08-24 23:27:00,79.4,71.6,29.79,SW,233,12.0,18.0,77,0.00,,---,0.00,VWS V14.01,2013-08-25 04:27:00,
2013-08-24 23:32:00,79.4,71.6,29.79,SW,234,11.0,16.0,77,0.00,,---,0.00,VWS V14.01,2013-08-25 04:32:00,
2013-08-24 23:37:00,79.2,71.4,29.79,WSW,254,12.0,16.0,77,0.00,,---,0.00,VWS V14.01,2013-08-25 04:37:00,
2013-08-24 23:42:00,79.2,71.4,29.79,SW,224,10.0,16.0,77,0.00,,---,0.00,VWS V14.01,2013-08-25 04:42:00,
2013-08-24 23:47:00,79.2,71.4,29.80,WSW,247,11.0,19.0,77,0.00,,---,0.00,VWS V14.01,2013-08-25 04:47:00,
2013-08-24 23:52:00,79.2,71.4,29.80,SW,223,10.0,17.0,77,0.00,,---,0.00,VWS V14.01,2013-08-25 04:52:00,
2013-08-24 23:57:00,79.2,71.4,29.80,WSW,250,12.0,17.0,77,0.00,,---,0.00,VWS V14.01,2013-08-25 04:57:00,